Home   Weather   Vennesla   Past weeks

Flag for Norway Past Weather in Vennesla, Norway — Yesterday and Last 2 Weeks

Now
70 °F

Passing clouds.


Feels Like: 70 °F
Forecast: 57 / 69 °F
Wind: 8 mph from East

Location: Kristiansand / Kjevik

Current Time: Jul 25, 2017 at 12:54:44 pm

Latest Report: Jul 25, 2017 at 12:20 pm


Visibility: N/A

Pressure: 29.89 "Hg

Humidity: 53%

Dew Point: 52 °F

Location of VenneslaLocation

Past Weather in Vennesla — Graph

°F

Vennesla Temperature Yesterday

Maximum temperature yesterday: 64 °F (at 2:50 pm)
Minimum temperature yesterday: 54 °F (at 11:20 pm)
Average temperature yesterday: 61 °F

High & Low Weather Summary for the Past Weeks

 TemperatureHumidityPressure
High73 °F (Jul 18, 3:20 pm)100% (Jul 10, 1:50 pm)30.09 "Hg (Jul 10, 1:50 pm)
Low48 °F (Jul 14, 5:20 am)33% (Jul 12, 2:50 pm)29.59 "Hg (Jul 11, 6:50 pm)
Average61 °F73%29.91 "Hg
* Reported Jul 10 11:20 am — Jul 25 11:50 am, Vennesla. Weather by CustomWeather, © 2017

Note: Actual official high and low records may vary slightly from our data, if they occured in-between our weather recording intervals... More about our weather records

Advertising

Vennesla Weather History for the Previous 24 Hours

Scroll right to see more
 ConditionsComfort  
Time TempWeatherWind HumidityBarometerVisibility
11:50 am
Tue, Jul 25
70 °FScattered clouds.7 mph57%29.89 "HgN/A
11:20 am70 °FScattered clouds.7 mph60%29.92 "HgN/A
10:50 am66 °FPassing clouds.6 mph68%29.92 "HgN/A
10:20 am64 °FPassing clouds.3 mph78%29.92 "HgN/A
9:20 am59 °FPartly sunny.3 mph88%29.92 "HgN/A
8:50 am61 °FSprinkles. Partly sunny.5 mph83%29.92 "HgN/A
8:20 am59 °FSprinkles. Partly sunny.6 mph88%29.92 "HgN/A
7:50 am59 °FPartly sunny.5 mph88%29.92 "HgN/A
7:20 am59 °FPartly sunny.6 mph88%29.92 "HgN/A
6:50 am57 °FPartly sunny.6 mph88%29.92 "HgN/A
6:20 am57 °FPartly sunny.5 mph88%29.92 "HgN/A
5:50 am57 °FPartly sunny.6 mph88%29.92 "HgN/A
5:20 am57 °FMore clouds than sun.6 mph88%29.92 "HgN/A
4:50 am57 °FOvercast.6 mph88%29.92 "HgN/A
4:20 am57 °FDrizzle. Overcast.3 mph88%29.92 "HgN/A
3:50 am55 °FMostly cloudy.3 mph88%29.92 "HgN/A
3:20 am55 °FMostly cloudy.7 mph94%29.95 "HgN/A
2:50 am54 °FPassing clouds.5 mph94%29.95 "HgN/A
2:20 am54 °FPartly cloudy.5 mph94%29.95 "HgN/A
1:50 am52 °FPassing clouds.5 mph100%29.95 "HgN/A
1:20 am54 °FPassing clouds.5 mph94%29.95 "HgN/A
12:50 am54 °FPassing clouds.3 mph94%29.95 "HgN/A
12:20 am54 °FPassing clouds.3 mph94%29.95 "HgN/A
11:50 pm
Mon, Jul 24
54 °FPassing clouds.6 mph94%29.95 "HgN/A
11:20 pm54 °FPassing clouds.6 mph94%29.95 "HgN/A
10:50 pm55 °FClear.3 mph94%29.95 "Hg10 mi
10:20 pm57 °FClear.5 mph88%29.95 "Hg10 mi
9:50 pm59 °FSunny.3 mph82%29.95 "Hg10 mi
8:50 pm63 °FSunny.3 mph68%29.95 "Hg10 mi
8:20 pm63 °FPassing clouds.5 mph68%29.95 "HgN/A
7:50 pm63 °FSunny.10 mph64%29.95 "Hg10 mi
7:20 pm64 °FSunny.12 mph64%29.95 "Hg10 mi
6:50 pm64 °FPartly sunny.9 mph64%29.95 "HgN/A
6:20 pm64 °FPartly sunny.9 mph64%29.95 "HgN/A
5:50 pm64 °FPartly sunny.12 mph68%29.95 "HgN/A
5:20 pm64 °FBroken clouds.14 mph68%29.95 "HgN/A
4:50 pm64 °FBroken clouds.13 mph73%29.95 "HgN/A
4:20 pm64 °FBroken clouds.12 mph73%29.95 "HgN/A
3:50 pm63 °FPartly sunny.7 mph77%29.95 "HgN/A
3:20 pm63 °FSprinkles. Partly sunny.12 mph77%29.95 "HgN/A
2:50 pm64 °FSprinkles. Broken clouds.13 mph73%29.95 "HgN/A
2:20 pm63 °FRain showers. Partly sunny.13 mph77%29.95 "HgN/A
1:50 pm63 °FRain showers. Broken clouds.9 mph83%29.95 "HgN/A
1:20 pm63 °FRain showers. Broken clouds.8 mph83%29.95 "HgN/A
12:20 pm63 °FBroken clouds.8 mph83%29.95 "HgN/A
Weather by CustomWeather, © 2017

See weather overviewHow to use our weather pages